Torna al catalogo

STARLINK-3352

AttivoComunicazioniVLEO
NORAD 51147·PAYLOAD·🇺🇸 United States

Lanciato Jan 19, 2022 da Cape Canaveral Space Force Station

Loading…

Prossimi Passaggi (prossime 24 ore)

TLE

AggiornatoSource: CelesTrak SupGP

Epoca: Sep 14, 2026, 21:36 UTC

1 51147C 22005AV  26257.90048611 -.00000211  00000+0 -56977-5 0  2579
2 51147  53.1857 137.0779 0003770 124.7012  53.7844 15.37129211    11

Traccia STARLINK-3352 in tempo reale con AllMySat

Download on the App Store